Powrót do katalogu

ARIANE 2 DEB

LostGTO
NORAD 27041·DEBRIS·🇫🇷 France

Wystrzelony Jan 27, 1989 z Guiana Space Centre

Loading…

TLE

NieaktualneSource: Space-Track

Epoka: Oct 17, 2023, 08:23 UTC

1 27041U 89006W   23290.34998944  .00001042  00000-0  68057-2 0  9998
2 27041   8.5600  58.0983 7185968 120.6016 328.4179  2.27891068 28353

Śledź ARIANE 2 DEB w czasie rzeczywistym z AllMySat

Download on the App Store